Regional Weather Roundup
Issued by NWS Kansas City/Pleasant Hill, MO

Home | Current Version | Previous Version | Graphics & Text | Print | Product List | Glossary Off
Versions: 1 2 3 4 5 6 7 8 9 10 11 12 13 14 15 16 17 18 19 20 21 22 23 24 25 26 27

000
ASUS43 KEAX 221210
RWREAX

WEATHER ROUNDUP FOR EASTERN KANSAS AND NORTHWEST MISSOURI
NATIONAL WEATHER SERVICE KANSAS CITY/PLEASANT HILL MO
600 AM CST THU FEB 22 2018

KSZ040-057-103>105-MOZ028-029-037-043-221300-
...KANSAS CITY METROPOLITAN AREA...

CITY           SKY/WX    TMP DP  RH WIND       PRES   REMARKS
K.C. INTL      LGT SNOW  26  25  96 NE8       30.41R FOG     WCI  18
6HR MIN TEMP:  25; 6HR MAX TEMP:  27; 6HR PCP:  0.07;

K.C. DOWNTOWN  CLOUDY    29  25  85 NE6       30.42R FOG     WCI  23
6HR MIN TEMP:  28; 6HR MAX TEMP:  30; 6HR PCP:  0.02;

LEES SUMMIT    CLOUDY    27  26  96 E8        30.40R FOG     WCI  19
6HR MIN TEMP:  26; 6HR MAX TEMP:  27;

OLATHE - IXD   CLOUDY    27  26  96 NE9       30.39S FOG     WCI  18
6HR MIN TEMP:  26; 6HR MAX TEMP:  28; 6HR PCP:  0.05;

OLATHE - OJC   CLOUDY    26  26 100 NE6       30.40R FOG     WCI  19
6HR MIN TEMP:  25; 6HR MAX TEMP:  26; 6HR PCP: TRACE;

LAWRENCE       CLOUDY    28  27  96 NE6       30.41R FOG     WCI  22

$$

MOZ001>008-011>017-020>025-030>033-038>040-044>046-053-054-221300-
...NORTHERN AND CENTRAL MISSOURI...

CITY           SKY/WX    TMP DP  RH WIND       PRES   REMARKS
ST. JOSEPH     CLOUDY    27  26  96 E5        30.44R WCI  22
6HR MIN TEMP:  25; 6HR MAX TEMP:  27; 6HR PCP:  0.12;

MOSBY          CLOUDY    28  28 100 E6        30.42R WCI  22
WARRENSBURG    CLOUDY    30  28  93 CALM      30.41R FOG
WHITEMAN AFB   FRZ DRZL  30  28  93 NE6       30.35R VSB 1/2 WCI  24
6HR MIN TEMP:  28; 6HR MAX TEMP:  30; 6HR PCP:  0.01;

CLINTON        CLOUDY    32  32 100 MISG      30.40R FOG
SEDALIA        LGT SNOW  31  31 100 NE7       30.40R FOG     WCI  24
6HR MIN TEMP:  29; 6HR MAX TEMP:  31; 6HR PCP:  0.02;

WARSAW         NOT AVBL
CHILLICOTHE      N/A     28  26  92 NE7       30.44S WCI  21
6HR MIN TEMP:  27; 6HR MAX TEMP:  29; 6HR PCP:  0.13;

KIRKSVILLE     CLOUDY    27  27 100 NE7       30.42S FOG     WCI  19
6HR MIN TEMP:  27; 6HR MAX TEMP:  28; 6HR PCP:  0.03;


$$

MOZ041-047>049-056>058-063>065-088>090-097-221300-
...EASTERN AND SOUTHERN MISSOURI...

CITY           SKY/WX    TMP DP  RH WIND       PRES   REMARKS
ST. LOUIS INTL DRIZZLE   34  34 100 NE6       30.39S FOG     WCI  29
6HR MIN TEMP:  32; 6HR MAX TEMP:  34; 6HR PCP:  0.15;

SPIRIT OF STL  LGT RAIN  34  33  96 NE6       30.39S WCI  29
COLUMBIA       CLOUDY    32  30  92 NE8       30.38R FOG     WCI  25
JEFFERSON CITY CLOUDY    33  30  88 NE3       30.39R
ROLLA          CLOUDY    32  32 100 NE9       30.34S FOG     WCI  24
OSAGE BEACH    MIX PCPN  31  30  96 CALM      30.38R FOG
SPRINGFIELD    CLOUDY    32  31  96 E3        30.34R FOG
BRANSON        CLOUDY    32  32 100 CALM      30.35R
JOPLIN         CLOUDY    31  31 100 CALM      30.36S FOG
WEST PLAINS    CLOUDY    33  32  96 N6        30.33R FOG     WCI  28

$$

IAZ060-094-KSZ022-034>040-054-083-096-NEZ052-066-093-221300-
...KANSAS...SOUTHEAST NEBRASKA AND IOWA...

CITY           SKY/WX    TMP DP  RH WIND       PRES   REMARKS
TOPEKA         CLOUDY    28  27  96 E8        30.40S FOG     WCI  20
6HR MIN TEMP:  27; 6HR MAX TEMP:  28; 6HR PCP:  0.14;

MANHATTAN      FRZ RAIN  29  27  92 E7        30.38S FOG     WCI  22
EMPORIA        CLOUDY    26  25  96 E9        30.34F FOG     WCI  17
CHANUTE        CLOUDY    30  29  96 NE6       30.37R FOG     WCI  24
WICHITA        FRZ DRZL  27  26  96 NE7       30.32F FOG     WCI  19
OMAHA          SNOW      23  20  88 NE8       30.45F VSB 1/2 WCI  14
LINCOLN        CLOUDY    22  19  89 NE7       30.42F FOG     WCI  13
FALLS CITY     MIX PCPN  26  24  92 CALM      30.42R FOG
LAMONI         CLOUDY    25  21  85 NE15      30.40F WCI  13
DES MOINES     FLURRIES  25  17  72 NE8       30.49R WCI  16

$$





USA.gov is the U.S. government's official web portal to all federal, state and local government web resources and services.